Flag for Poland Weather past 2 weeks in Warsaw, Poland

Now
45 °F

Scattered clouds.


Feels Like: 39 °F
Forecast: 38 / 46 °F
Wind: 12 mph from South

Location: Warsaw Okecie Airport

Current Time: Mar 1, 2015 at 12:07:47 PM

Latest Report: Mar 1, 2015 at 11:30 AM


Visibility: 4 mi

Pressure: 29.89 "Hg

Humidity: 71%

Dew point: 36 °F

Location of WarsawLocation

Historic Weather in Warsaw — Graph

°F

Warsaw temperature yesterday

Maximum temperature yesterday: 46 °F (at 1:30 PM)
Minimum temperature yesterday: 30 °F (at 11:00 PM)
Average temperature yesterday: 40 °F

Past Weeks' High & Low Weather Summary

 TemperatureHumidityPressure
High50 °F (Feb 14, 2:30 PM)100% (Feb 15, 9:30 AM)30.66 "Hg (Feb 15, 9:30 AM)
Low18 °F (Feb 18, 6:00 AM)22% (Feb 17, 2:00 PM)29.53 "Hg (Feb 21, 4:00 PM)
Average37 °F77%30.08 "Hg
* Reported Feb 14 11:00 AM — Mar 1 11:00 AM, Warsaw, Weather by CustomWeather, © 2015

Note: Actual official high and low records may vary slightly from our data, if they occured in-between our weather recording intervals... More about our weather records

Advertising

Warsaw weather history for previous 24 hours

 ConditionsComfort  
Time TempWeatherWind HumidityBarometerVisibility
11:00 AM
Sun, Mar 1
43 °FFog.9 mph76%29.92 "Hg3 mi
10:30 AM39 °FFog.8 mph87%29.92 "Hg3 mi
10:00 AM39 °FFog.7 mph87%29.95 "Hg3 mi
9:30 AM37 °FFog.9 mph93%29.95 "Hg3 mi
9:00 AM36 °FFog.7 mph100%29.95 "Hg2 mi
8:30 AM34 °FFog.5 mph100%29.98 "Hg2 mi
8:00 AM32 °FIce fog.6 mph100%29.98 "Hg1 mi
7:30 AM30 °FIce fog.5 mph93%29.98 "Hg1 mi
7:00 AM28 °FChilly.5 mph100%30.01 "Hg1 mi
6:30 AM27 °FIce fog.5 mph100%30.01 "Hg1 mi
6:00 AM27 °FIce fog.3 mph100%30.01 "Hg1 mi
5:30 AM27 °FIce fog.3 mph93%30.01 "Hg1 mi
5:00 AM25 °FIce fog.1 mph100%30.01 "Hg1 mi
4:30 AM27 °FIce fog.2 mph100%30.01 "Hg1 mi
4:00 AM28 °FChilly.1 mph93%30.01 "Hg0 mi
3:30 AM27 °FChilly.2 mph100%30.04 "Hg1 mi
3:00 AM28 °FIce fog.1 mph100%30.04 "Hg1 mi
2:30 AM28 °FIce fog.1 mph100%30.07 "Hg1 mi
2:00 AM30 °FIce fog.3 mph100%30.07 "Hg1 mi
1:30 AM30 °FIce fog.1 mph93%30.07 "Hg1 mi
1:00 AM28 °FIce fog.2 mph100%30.07 "Hg1 mi
12:30 AM32 °FIce fog.No wind100%30.07 "Hg2 mi
12:00 AM30 °FIce fog.3 mph100%30.07 "Hg1 mi
11:30 PM
Sat, Feb 28
32 °FIce fog.3 mph100%30.07 "Hg2 mi
11:00 PM30 °FIce fog.5 mph100%30.07 "Hg2 mi
10:30 PM32 °FIce fog.5 mph93%30.09 "Hg2 mi
10:00 PM32 °FIce fog.3 mph100%30.09 "Hg2 mi
9:30 PM32 °FIce fog.2 mph100%30.09 "Hg3 mi
9:00 PM36 °FClear.1 mph93%30.09 "Hg4 mi
8:30 PM36 °FClear.2 mph93%30.09 "Hg4 mi
8:00 PM37 °FClear.3 mph87%30.09 "Hg4 mi
7:30 PM37 °FPassing clouds.7 mph93%30.09 "Hg4 mi
7:00 PM39 °FPassing clouds.10 mph87%30.07 "Hg4 mi
6:30 PM39 °FFog.10 mph87%30.07 "Hg3 mi
6:00 PM41 °FLight rain. Fog.10 mph87%30.07 "Hg3 mi
5:30 PM43 °FLight rain. Fog.9 mph87%30.07 "Hg3 mi
5:00 PM45 °FFog.7 mph81%30.04 "Hg2 mi
4:30 PM46 °FFog.6 mph76%30.04 "Hg3 mi
4:00 PM46 °FFog.7 mph66%30.04 "Hg3 mi
3:30 PM46 °FClear.8 mph76%30.04 "Hg4 mi
3:00 PM46 °FClear.5 mph76%30.04 "Hg4 mi
2:30 PM46 °FFog.3 mph76%30.04 "Hg3 mi
2:00 PM46 °FFog.3 mph76%30.04 "Hg3 mi
1:30 PM46 °FFog.3 mph76%30.04 "Hg3 mi
1:00 PM45 °FFog.3 mph81%30.04 "Hg3 mi
12:30 PM45 °FFog.5 mph81%30.04 "Hg3 mi
12:00 PM45 °FFog.3 mph81%30.04 "Hg3 mi
Weather by CustomWeather, © 2015

See weather overviewHow to use our weather pages